Content
SEND FEEDBACK

Daily
Averages
Monthly
Summary
United States of America

TULSA - AIRPORT, OKLAHOMA


Home > North America > United States > Oklahoma
Elevation: 680 feet     Latitude: 36 12N     Longitude: 095 54W

WEATHER
 
SELECT A DAY
Number of Records: 192,772;   Date Range: 1/1/95 - 8/12/14
 
SHARE

PRINT THIS DATA

[ ← Previous Day ]
WEATHER ALMANAC - JANUARY 23, 2013
[ Next Day → ]
[ °C ]   °F
Weather ElementAverageHighLow
Temperature45 °F62.1 °F (3:53 pm)28.9 °F (7:53 am)
Dewpoint33.4 °F42.1 °F (6:53 pm)23 °F (7:53 am)
Humidity65 %79 % (4:53 am)46 % (3:53 pm)
Barometer30.20 in30.27 in (9:53 am)30.12 in (3:53 pm)
Wind Speed4.1 mph10.4 mph (11:53 pm)
Weather ElementAverage
Visibility9.2 mi
Wind DirectionE (91.7 °)

Weather ElementTotal
Precipitation---
Heating Degree Days19.5 (Base 65)
Averaged from 23 records on January 23, 2013
WEATHER CONDITIONS BREAKOUT
WIND DIRECTION BREAKOUT
WEATHER BY HOUR - JANUARY 23, 2013
[ °C ]   °F
Local TimeTemperatureDewpointHumidityBarometerVisibilityWind DirectionWind SpeedGust SpeedPrecipitationEventsConditions
1:53 AM33.1 °F24.1 °F70 %30.23 in10.0 miSouth (170°)5.8 mphClear
2:53 AM32.0 °F24.1 °F73 %30.25 in10.0 miCalmClear
3:53 AM30.9 °F24.1 °F76 %30.25 in10.0 miCalmClear
4:53 AM30.0 °F24.1 °F79 %30.24 in10.0 miCalmClear
5:53 AM30.9 °F24.1 °F76 %30.23 in10.0 miSouth (180°)4.6 mphClear
6:53 AM30.9 °F24.1 °F76 %30.24 in10.0 miSouth (170°)3.5 mphClear
7:53 AM28.9 °F23.0 °F78 %30.25 in8.0 miCalmClear
8:53 AM34.0 °F27.0 °F75 %30.26 in8.0 miCalmClear
9:53 AM39.9 °F28.9 °F65 %30.27 in9.0 miSSE (160°)5.8 mphClear
10:53 AM46.0 °F32.0 °F58 %30.25 in10.0 miSouth (190°)6.9 mphClear
11:53 AM51.1 °F36.0 °F56 %30.22 in9.0 miSSE (160°)5.8 mphClear
12:53 PM54.0 °F37.0 °F53 %30.18 in9.0 miCalmClear
1:53 PM57.0 °F37.0 °F47 %30.15 in8.0 miCalmClear
2:53 PM60.1 °F39.9 °F47 %30.14 in9.0 miSSE (150°)5.8 mphClear
3:53 PM62.1 °F41.0 °F46 %30.12 in10.0 miSSE (150°)8.1 mphClear
4:53 PM60.1 °F39.9 °F47 %30.12 in10.0 miSE (140°)4.6 mphClear
5:53 PM55.0 °F41.0 °F59 %30.13 in10.0 miEast (100°)4.6 mphClear
6:53 PM55.0 °F42.1 °F62 %30.15 in10.0 miENE (70°)4.6 mphClear
7:53 PM53.1 °F42.1 °F66 %30.17 in9.0 miNE (50°)5.8 mphClear
8:53 PM50.0 °F41.0 °F71 %30.20 in9.0 miNNE (30°)6.9 mphClear
9:53 PM48.9 °F39.9 °F71 %30.20 in8.0 miNorth (10°)5.8 mphClear
10:53 PM46.9 °F39.0 °F74 %30.21 in8.0 miNorth (360°)4.6 mphClear
11:53 PM45.0 °F36.0 °F71 %30.25 in8.0 miNNE (20°)10.4 mphMostly Cloudy
Hourly data recorded from KTUL, located miles away from Tulsa - Airport, Oklahoma







STORIES FROM OUR PARTNERS